This is the latest recevied weather packets stored in our database for station/object DH8TOM-3. If no packets are shown the sender has not sent any weather packets the latest 10 day(s).
| Time | Temp. | Humidity | Pressure | Rain* | Wind** | Luminosity | Snow |
|---|---|---|---|---|---|---|---|
| 1778025288 | 15.56° C | 81% | 1004.2 hPa | 0.25 mm | - | - | - |
| 1778024987 | 15.56° C | 81% | 1004.2 hPa | 0.25 mm | - | - | - |
| 1778024686 | 16.11° C | 80% | 1004.1 hPa | 0.25 mm | - | - | - |
| 1778024385 | 16.11° C | 80% | 1004.1 hPa | 0.25 mm | - | - | - |
| 1778024084 | 16.11° C | 81% | 1004 hPa | 0.25 mm | - | - | - |
| 1778023783 | 16.11° C | 81% | 1004 hPa | 0.25 mm | - | - | - |
| 1778023482 | 16.11° C | 81% | 1003.9 hPa | 0.25 mm | - | - | - |
| 1778023181 | 16.11° C | 81% | 1003.9 hPa | 0.25 mm | - | - | - |
| 1778022880 | 16.11° C | 81% | 1004.1 hPa | 0.76 mm | - | - | - |
| 1778022579 | 16.11° C | 81% | 1004.1 hPa | 0.76 mm | - | - | - |
| 1778022278 | 16.11° C | 81% | 1004.2 hPa | 1.52 mm | - | - | - |
| 1778021977 | 16.11° C | 81% | 1004.2 hPa | 1.52 mm | - | - | - |
| 1778021676 | 16.11° C | 81% | 1004.3 hPa | 2.03 mm | - | - | - |
| 1778021375 | 16.11° C | 81% | 1004.3 hPa | 2.03 mm | - | - | - |
| 1778021074 | 16.11° C | 79% | 1004.5 hPa | 2.54 mm | - | - | - |
| 1778020772 | 16.11° C | 79% | 1004.5 hPa | 2.54 mm | - | - | - |
| 1778020472 | 16.11° C | 79% | 1004.7 hPa | 2.79 mm | - | - | - |
| 1778020171 | 16.11° C | 79% | 1004.7 hPa | 2.79 mm | - | - | - |
| 1778019870 | 16.67° C | 79% | 1005 hPa | 3.3 mm | - | - | - |
| 1778019568 | 16.67° C | 79% | 1005 hPa | 3.3 mm | - | - | - |
| 1778019268 | 16.67° C | 79% | 1005.2 hPa | 3.05 mm | - | - | - |
| 1778018967 | 16.67° C | 79% | 1005.2 hPa | 3.05 mm | - | - | - |
| 1778018667 | 16.67° C | 78% | 1005.2 hPa | 2.54 mm | - | - | - |
| 1778018365 | 16.67° C | 78% | 1005.2 hPa | 2.54 mm | - | - | - |
| 1778018064 | 16.67° C | 77% | 1005.4 hPa | 2.03 mm | - | - | - |
* Rain latest hour (hover to see other rain measurements)
** Current wind speed in m/s (hover to see current wind gust speed)